Theta_e
311 310 310 311 310 310 307 308 309 310 309 308 309 311 312 313 313 313 313 312 310 309 308 307 309 311 312 312 311 309 308 306 304 304 303 302 303 305 305 305 305 305 305 306
309 309 310 309 309 308 308 308 309 309 308 309 311 311 312 313 314 314 313 311 310 307 307 309 310 310 311 310 309 308 307 304 303 302 301 302 304 305 304 305 305 305 306 306
310 310 308 307 307 307 308 309 309 309 309 310 310 313 315 314 312 311 310 310 309 309 308 309 310 310 310 310 308 307 305 303 302 300 301 303 303 304 305 306 306 306 306 306
309 308 307 307 308 308 309 309 308 308 311 314 311 313 314 315 314 313 312 310 308 309 309 309 310 310 310 309 307 305 303 302 300 300 301 304 305 306 305 305 305 305 305 306
311 309 308 309 309 308 310 308 309 310 312 312 313 312 313 313 314 316 314 311 309 308 309 309 309 309 309 307 305 304 302 301 300 300 302 304 304 304 304 305 305 305 306 306
309 307 308 309 306 307 309 311 311 312 314 326 314 312 314 315 313 311 311 310 308 308 308 309 308 308 307 305 304 303 302 301 300 301 302 303 304 304 305 305 305 305 306 306
308 309 307 307 309 309 310 311 327 328 324 324 309 310 313 314 311 310 310 310 308 308 308 308 308 307 306 304 304 302 302 301 299 300 302 303 303 303 304 305 304 305 306 306
317 317 309 308 310 311 310 312 331 332 323 320 308 312 315 314 311 310 308 307 308 308 308 308 307 307 306 304 303 302 301 301 299 300 302 302 302 303 303 303 303 304 305 305
320 317 306 306 306 308 311 313 310 317 308 315 315 315 314 312 310 309 307 307 307 307 307 308 308 307 306 304 303 302 301 300 299 300 302 302 302 302 303 303 303 303 303 304
315 315 305 305 306 306 308 307 314 316 321 320 316 313 315 312 312 310 308 306 305 305 306 307 307 306 306 304 303 302 301 300 299 299 301 301 302 302 302 302 303 303 304 305
311 317 308 306 310 310 307 310 309 312 312 323 324 315 313 312 312 312 311 309 307 305 305 306 306 305 305 304 303 302 301 299 298 299 301 301 301 301 301 302 302 304 305 305
309 312 312 312 305 305 306 309 310 320 323 313 317 319 311 310 310 310 310 310 309 308 305 305 305 305 304 303 303 302 301 299 298 299 300 300 301 301 301 302 303 305 305 306
308 316 314 313 309 305 307 307 308 312 314 318 323 318 312 309 309 309 310 309 309 308 308 304 304 305 304 304 303 302 300 298 298 298 300 300 300 300 301 302 304 306 307 307
308 315 320 316 314 310 309 309 308 312 321 319 317 323 312 313 313 311 310 309 310 308 307 306 305 304 304 304 303 302 300 299 298 298 300 300 300 301 302 304 304 305 306 307
307 314 308 307 307 307 308 309 310 310 312 318 319 314 314 312 312 312 308 308 309 308 305 306 305 306 303 303 302 301 300 298 298 298 299 300 300 301 302 304 304 305 306 307
307 311 307 308 305 306 310 309 309 308 310 310 310 310 308 308 309 309 309 310 310 310 308 306 304 303 300 301 301 300 299 298 297 298 299 300 300 300 303 304 306 305 306 307
308 309 313 313 306 309 314 309 309 308 308 308 309 308 309 311 309 308 308 310 310 308 306 305 305 304 302 300 299 299 298 298 297 297 298 299 300 301 304 306 306 306 307 308
310 312 312 317 311 314 312 308 309 310 310 308 310 309 309 309 308 307 308 309 308 306 304 303 302 302 302 300 298 298 298 297 297 297 298 298 299 301 305 306 305 306 307 309
309 311 315 316 315 313 309 307 308 309 311 309 308 308 309 306 307 308 306 306 306 305 303 301 300 300 299 298 298 297 297 297 297 297 298 298 299 303 305 305 305 306 307 308
309 310 313 312 316 316 311 307 306 307 313 309 309 309 306 307 313 310 306 304 304 304 302 300 299 298 297 296 296 296 296 296 296 297 297 298 300 303 305 304 306 306 307 307
309 311 315 313 315 313 308 306 306 312 312 309 309 309 308 310 309 306 303 301 300 301 301 299 300 298 295 295 294 294 295 295 296 296 297 297 299 304 305 304 305 306 306 306
309 311 312 313 313 313 306 305 310 310 309 309 308 308 307 305 303 301 299 298 298 298 299 298 298 298 296 295 294 294 294 295 295 296 296 297 298 302 305 304 304 305 305 305
308 308 311 310 310 305 306 307 307 309 308 307 306 304 303 301 300 299 298 297 297 296 296 297 297 298 299 296 294 293 294 293 294 295 295 296 298 301 303 303 302 303 304 304
303 302 308 308 307 305 305 305 306 307 305 303 301 300 299 298 298 298 298 297 297 295 294 294 296 297 299 299 295 295 294 293 293 294 295 295 297 300 301 301 301 303 303 301
303 302 304 306 301 303 304 306 305 303 300 298 298 298 297 298 297 296 297 297 296 294 293 293 295 296 297 299 298 295 295 293 293 293 294 295 296 299 300 300 300 300 303 303
302 304 304 304 304 305 305 305 303 300 299 297 296 295 295 296 296 295 296 294 292 292 292 293 293 294 296 298 300 295 294 293 293 293 293 294 295 297 298 298 297 297 298 298
Wind_Speed
6 7 11 13 15 8 3 5 9 4 3 4 11 18 20 17 17 15 7 3 3 4 6 10 12 14 15 15 15 14 12 11 8 5 3 4 2 2 2 2 4 5 4 4
4 12 12 1 8 7 8 9 11 6 1 3 11 19 24 17 9 3 3 4 6 7 9 10 13 14 15 16 14 13 11 10 7 4 3 1 1 1 1 1 2 3 3 4
10 2 0 9 7 9 10 11 9 6 4 10 11 12 10 3 3 4 4 3 5 9 11 11 12 14 14 14 13 12 10 8 6 4 2 2 1 0 1 1 2 6 7 8
10 5 5 8 10 11 9 3 8 5 3 4 1 6 12 2 5 6 7 7 7 9 10 11 12 13 13 13 12 10 9 7 6 4 3 3 1 1 1 0 2 4 5 8
6 9 10 8 3 11 1 2 4 2 4 5 5 5 5 3 5 5 7 8 7 8 10 11 11 12 13 12 11 9 8 7 5 4 3 2 2 2 2 1 2 3 4 7
3 1 3 0 4 1 9 5 4 2 1 3 3 4 4 4 4 6 4 7 7 8 9 10 12 12 12 11 10 8 7 6 4 3 3 3 3 3 3 1 1 1 3 5
3 3 2 3 6 4 5 6 1 1 1 4 2 4 10 9 6 5 2 6 6 7 9 10 11 12 13 12 10 9 8 7 5 4 3 3 4 3 4 4 2 0 0 2
8 5 10 9 2 4 11 3 3 4 3 2 2 5 1 6 5 2 1 3 6 6 7 9 10 12 12 11 11 10 9 8 7 5 4 4 4 4 5 4 1 1 3 3
7 6 1 1 1 0 6 6 2 4 2 1 5 6 4 9 10 9 5 3 3 5 6 7 9 11 12 13 13 12 10 8 8 7 6 6 5 5 4 3 0 3 4 3
6 4 2 2 1 2 3 1 3 1 4 5 3 6 5 10 12 11 10 7 5 2 6 7 8 11 11 12 12 11 10 9 8 8 7 6 6 5 4 4 4 2 4 5
4 1 2 2 7 9 4 4 4 2 2 3 2 3 8 14 11 12 9 9 8 3 5 8 8 11 11 10 12 12 11 10 10 9 8 8 8 6 5 5 5 3 2 5
5 4 4 4 0 2 3 6 9 4 4 1 2 2 9 10 8 9 10 7 8 6 2 6 8 11 12 13 13 13 12 12 11 10 9 8 8 7 6 5 5 4 2 3
10 5 5 2 1 2 6 9 7 4 0 6 5 3 4 8 1 1 5 8 7 6 6 2 6 9 13 15 15 14 12 12 11 10 9 9 9 8 7 5 6 5 4 4
6 1 3 8 3 5 6 10 14 8 4 6 8 1 6 6 6 2 4 6 6 5 5 5 4 6 12 14 15 15 14 13 13 11 10 10 10 9 7 6 5 5 4 3
6 4 2 2 3 2 3 4 10 11 14 9 4 10 8 5 7 5 4 6 5 5 6 5 4 4 8 12 14 15 15 15 14 13 11 10 10 9 7 7 6 6 5 3
5 2 2 2 2 3 1 3 6 5 4 6 5 7 11 14 7 7 8 7 8 9 7 5 6 4 7 15 15 17 19 19 17 15 14 11 11 10 10 7 6 6 5 5
11 5 3 4 2 1 6 9 10 6 6 8 10 13 7 6 3 5 5 6 7 9 11 9 9 7 9 10 19 20 19 17 19 16 16 14 13 12 11 9 8 6 6 7
7 6 2 3 3 7 2 3 7 12 7 13 8 4 7 7 1 6 6 6 8 10 11 11 11 14 14 11 10 15 18 20 19 17 16 16 15 15 12 11 9 8 8 9
5 5 4 3 7 6 5 5 6 7 3 12 13 9 4 6 10 8 7 7 7 8 9 11 14 13 13 11 5 11 18 19 19 19 17 19 17 16 14 13 11 10 9 9
3 3 5 4 6 8 3 6 3 4 5 10 10 6 11 13 6 4 5 6 7 9 10 13 13 14 14 13 4 7 14 18 19 21 20 18 21 18 17 16 14 12 11 10
5 4 9 7 6 4 5 8 7 7 1 12 9 7 12 4 6 6 4 6 7 7 11 14 11 11 11 13 6 4 7 13 19 21 20 18 19 20 18 17 17 14 13 11
9 10 6 3 9 10 12 5 7 6 10 11 10 9 11 10 8 6 6 6 7 10 12 16 14 17 17 15 9 5 6 9 13 16 19 19 20 20 19 17 18 16 14 13
8 7 6 8 4 3 11 2 5 7 11 9 11 9 11 10 7 5 4 5 6 8 10 18 18 18 18 18 12 8 7 6 9 13 16 19 20 21 19 19 21 19 17 16
5 2 2 3 5 5 6 3 6 8 10 11 11 10 9 9 6 5 5 6 7 13 14 19 21 21 22 21 16 11 9 5 5 14 15 18 21 22 20 19 22 23 22 21
3 10 5 1 1 2 4 4 8 10 12 13 10 9 8 7 6 6 5 5 8 12 20 20 18 20 22 21 18 13 8 5 6 12 16 19 20 22 22 21 23 26 26 28
5 5 8 5 8 5 8 9 10 11 10 10 11 5 4 4 3 1 3 5 9 14 19 21 20 20 24 23 19 14 8 6 8 11 14 18 21 22 22 22 20 21 22 23
Wind_Direction
197 213 212 213 222 259 276 259 261 246 120 293 273 285 290 284 273 278 276 188 148 148 127 146 147 153 157 158 158 161 161 166 159 163 173 225 237 239 242 351 346 332 1 25
184 233 236 222 218 232 245 257 267 274 196 251 289 288 286 286 273 235 180 165 146 145 149 145 149 152 161 157 160 162 165 167 160 150 212 180 219 239 291 346 302 333 6 353
218 25 349 190 186 207 229 245 265 276 313 241 285 262 272 180 213 185 199 142 145 160 155 153 156 163 158 158 161 164 170 161 149 161 171 141 157 248 280 295 352 9 353 350
234 163 161 188 210 212 239 248 247 264 274 287 294 294 298 261 262 179 174 182 153 154 154 158 163 163 163 158 158 168 167 154 151 177 202 205 247 205 193 62 9 19 344 347
185 184 191 195 191 191 81 136 175 207 239 309 205 255 256 213 293 49 162 158 147 158 165 163 168 164 158 153 159 171 165 160 167 189 178 180 180 173 207 177 29 20 0 358
71 41 218 115 99 78 139 122 110 107 272 247 215 251 263 349 29 72 110 152 142 153 163 160 158 157 157 160 164 175 173 168 181 202 170 185 195 189 222 141 130 84 15 357
150 170 148 187 118 116 207 180 30 259 176 248 128 207 265 349 29 348 28 152 152 156 166 164 162 171 171 169 175 184 185 175 193 214 199 200 201 190 217 213 181 199 263 16
170 213 180 170 243 193 195 228 205 232 200 106 125 232 221 352 318 299 227 66 140 164 167 174 177 181 177 177 186 192 192 187 187 208 211 216 206 203 231 235 244 293 311 342
181 194 108 54 340 248 173 213 40 97 75 279 215 240 142 50 53 61 68 83 151 168 171 182 183 185 184 185 192 196 196 195 193 203 205 211 215 218 240 260 257 322 311 324
181 125 353 73 259 197 260 175 138 201 200 226 185 262 227 74 71 71 57 49 49 177 174 183 191 193 195 193 192 196 199 201 200 201 206 210 217 221 234 258 237 211 305 316
128 131 105 174 210 187 160 192 220 223 238 247 216 184 119 114 90 76 63 51 46 59 187 199 200 198 200 196 192 197 197 197 201 201 205 212 211 217 234 248 264 262 286 315
157 94 152 187 86 310 312 229 197 195 194 248 2 111 156 131 91 54 49 35 21 18 347 214 205 195 196 197 197 203 199 196 203 204 204 212 218 213 221 246 261 263 292 315
174 176 128 117 196 198 221 206 227 232 64 194 188 197 198 172 205 2 8 11 344 350 356 277 223 207 209 205 197 203 206 201 195 198 205 209 218 221 222 228 250 263 275 282
159 105 192 196 109 124 189 210 204 194 192 192 228 53 198 231 240 331 23 346 352 337 340 319 263 227 220 211 201 199 205 202 192 194 206 211 213 222 224 221 237 257 243 243
193 189 129 66 67 128 193 172 193 203 211 210 199 220 235 267 320 153 21 11 9 333 331 325 289 257 234 210 202 200 204 201 190 187 199 219 215 217 225 233 236 247 214 215
184 136 127 125 47 28 308 180 192 209 236 273 285 271 262 287 312 354 25 15 4 352 344 326 316 292 246 224 203 199 203 208 195 189 194 199 212 211 221 233 237 225 215 191
174 145 147 191 100 207 271 196 188 189 206 201 226 246 232 272 293 334 12 9 2 358 347 344 336 328 311 257 220 202 202 205 199 196 194 193 200 209 219 224 224 209 200 179
170 141 85 118 168 227 71 108 204 208 216 219 245 217 274 284 137 88 42 24 9 360 355 351 345 338 333 319 241 209 201 198 201 194 195 190 202 208 213 213 201 191 189 177
150 138 136 204 216 304 186 191 179 178 228 215 226 236 220 146 137 83 49 29 11 356 352 343 345 340 339 337 286 198 193 198 202 198 198 194 196 205 206 205 190 187 189 176
105 215 195 173 214 215 188 143 148 152 245 166 164 153 146 158 157 109 41 29 18 9 1 349 353 359 8 355 341 214 196 195 206 215 206 207 190 203 208 205 192 192 187 179
159 164 205 189 219 262 150 132 152 185 146 149 152 131 162 150 71 103 68 45 26 17 4 358 7 14 4 356 345 254 227 215 222 222 217 213 207 196 211 209 199 196 189 183
171 175 185 182 209 233 148 136 196 117 120 134 129 121 111 111 105 96 66 33 15 15 11 8 3 2 8 11 4 338 283 263 235 226 221 211 214 206 206 212 205 199 196 189
200 203 178 203 208 78 181 18 142 141 141 139 133 130 128 121 106 87 60 30 24 13 5 7 4 358 13 13 5 335 329 297 247 226 222 219 213 208 215 209 209 202 201 202
221 92 173 122 184 181 181 138 148 155 141 136 130 126 127 119 114 96 52 17 6 360 0 359 2 357 356 2 2 350 333 316 248 224 214 220 215 207 219 215 214 211 208 206
171 153 151 231 201 112 203 182 153 134 131 131 127 121 116 104 73 43 27 9 359 354 349 351 351 347 347 350 353 348 340 302 247 239 221 213 217 213 214 218 217 220 222 219
185 161 187 207 166 201 184 161 151 148 149 140 130 112 79 73 80 39 333 355 355 345 341 340 339 341 343 342 342 340 325 273 246 233 233 223 212 217 219 220 217 228 231 224